When you browse on this site, cookies collect data to enhance your experience and personalize the content and advertising you see.
Visit our Privacy Policy to learn more. By continuing to use the site, you agree to this use of cookies and data.
  • Em Portugal
  • Lista de países
  • Para 7 dias
  • Temperatura da água
  • Mapa do tempo
  • Widgets de tempo
  • user-avatar
    Iniciar Sessão

    Previsão horária em Moron de la Frontera

    Hoje, 21 Agosto, Quarta-feira

    Tempo Temperatura Precipitação Vento Pressão Humidade
    00:00 +21°C° 0 mm 2 m/s 745 mmHg 54%
    01:00 +21°C° 0 mm 2 m/s 745 mmHg 59%
    02:00 +22°C° 0 mm 1 m/s 745 mmHg 64%
    03:00 +22°C° 0 mm 1 m/s 744 mmHg 69%
    04:00 +21°C° 0 mm 1 m/s 745 mmHg 70%
    05:00 +21°C° 0 mm 1 m/s 745 mmHg 71%
    06:00 +21°C° 0 mm 1 m/s 745 mmHg 72%
    07:00 +24°C° 0 mm 2 m/s 745 mmHg 64%
    08:00 +27°C° 0 mm 2 m/s 745 mmHg 57%
    09:00 +30°C° 0 mm 3 m/s 746 mmHg 50%
    10:00 +31°C° 0 mm 3 m/s 745 mmHg 46%
    11:00 +34°C° 0 mm 4 m/s 745 mmHg 41%
    12:00 +36°C° 0 mm 4 m/s 745 mmHg 37%
    13:00 +36°C° 0 mm 4 m/s 745 mmHg 34%
    14:00 +37°C° 0 mm 3 m/s 744 mmHg 31%
    15:00 +38°C° 0 mm 3 m/s 744 mmHg 28%
    16:00 +37°C° 0 mm 3 m/s 744 mmHg 30%
    17:00 +36°C° 0 mm 3 m/s 744 mmHg 31%
    18:00 +36°C° 0 mm 3 m/s 744 mmHg 32%
    19:00 +33°C° 0 mm 3 m/s 744 mmHg 45%
    20:00 +29°C° 0 mm 2 m/s 744 mmHg 57%
    21:00 +25°C° 0 mm 2 m/s 745 mmHg 70%
    22:00 +25°C° 0 mm 2 m/s 745 mmHg 74%
    23:00 +24°C° 0 mm 2 m/s 745 mmHg 78%

    Amanhã, 22 Agosto, Quinta-feira

    Tempo Temperatura Precipitação Vento Pressão Humidade
    00:00 +23°C° 0 mm 1 m/s 745 mmHg 82%
    01:00 +23°C° 0 mm 1 m/s 745 mmHg 83%
    02:00 +23°C° 0 mm 1 m/s 745 mmHg 84%
    03:00 +23°C° 0 mm 1 m/s 745 mmHg 85%
    04:00 +21°C° 0 mm 2 m/s 745 mmHg 86%
    05:00 +21°C° 0 mm 2 m/s 745 mmHg 87%
    06:00 +21°C° 0 mm 2 m/s 745 mmHg 87%
    07:00 +25°C° 0 mm 2 m/s 745 mmHg 75%
    08:00 +28°C° 0 mm 3 m/s 745 mmHg 63%
    09:00 +30°C° 0 mm 3 m/s 745 mmHg 51%
    10:00 +33°C° 0 mm 4 m/s 745 mmHg 44%
    11:00 +35°C° 0 mm 4 m/s 745 mmHg 37%
    12:00 +37°C° 0 mm 5 m/s 745 mmHg 30%
    13:00 +37°C° 0 mm 5 m/s 744 mmHg 28%
    14:00 +39°C° 0 mm 6 m/s 744 mmHg 26%
    15:00 +39°C° 0 mm 6 m/s 743 mmHg 24%
    16:00 +38°C° 0 mm 6 m/s 743 mmHg 26%
    17:00 +36°C° 0 mm 5 m/s 743 mmHg 29%
    18:00 +34°C° 0 mm 5 m/s 743 mmHg 31%
    19:00 +32°C° 0 mm 5 m/s 743 mmHg 37%
    20:00 +28°C° 0 mm 5 m/s 744 mmHg 44%
    21:00 +26°C° 0 mm 4 m/s 744 mmHg 50%
    22:00 +25°C° 0 mm 4 m/s 744 mmHg 52%
    23:00 +24°C° 0 mm 3 m/s 745 mmHg 54%

    Depois de amanhã, 23 Agosto, Sexta-feira

    Tempo Temperatura Precipitação Vento Pressão Humidade
    00:00 +23°C° 0 mm 2 m/s 745 mmHg 56%
    01:00 +23°C° 0 mm 2 m/s 745 mmHg 57%
    02:00 +21°C° 0 mm 2 m/s 744 mmHg 59%
    03:00 +21°C° 0 mm 2 m/s 744 mmHg 60%
    04:00 +21°C° 0 mm 2 m/s 744 mmHg 61%
    05:00 +20°C° 0 mm 2 m/s 744 mmHg 62%
    06:00 +20°C° 0 mm 2 m/s 745 mmHg 63%
    07:00 +25°C° 0 mm 3 m/s 745 mmHg 51%
    08:00 +28°C° 0 mm 3 m/s 745 mmHg 39%
    09:00 +32°C° 0 mm 4 m/s 745 mmHg 28%
    10:00 +34°C° 0 mm 4 m/s 745 mmHg 25%
    11:00 +36°C° 0 mm 4 m/s 745 mmHg 21%
    12:00 +38°C° 0 mm 4 m/s 745 mmHg 18%
    13:00 +40°C° 0 mm 4 m/s 745 mmHg 17%
    14:00 +40°C° 0 mm 4 m/s 744 mmHg 17%
    15:00 +41°C° 0 mm 4 m/s 744 mmHg 16%
    16:00 +40°C° 0 mm 4 m/s 744 mmHg 18%
    17:00 +37°C° 0 mm 4 m/s 744 mmHg 20%
    18:00 +36°C° 0 mm 4 m/s 743 mmHg 22%
    19:00 +33°C° 0 mm 3 m/s 744 mmHg 29%
    20:00 +29°C° 0 mm 3 m/s 744 mmHg 37%
    21:00 +25°C° 0 mm 2 m/s 745 mmHg 45%
    22:00 +24°C° 0 mm 2 m/s 745 mmHg 47%
    23:00 +24°C° 0 mm 2 m/s 745 mmHg 49%

    24 Agosto, Sábado

    Tempo Temperatura Precipitação Vento Pressão Humidade
    00:00 +23°C° 0 mm 2 m/s 745 mmHg 51%
    01:00 +23°C° 0 mm 2 m/s 745 mmHg 51%
    02:00 +21°C° 0 mm 2 m/s 744 mmHg 50%
    03:00 +21°C° 0 mm 2 m/s 744 mmHg 49%
    04:00 +21°C° 0 mm 2 m/s 744 mmHg 49%
    05:00 +20°C° 0 mm 2 m/s 744 mmHg 48%
    06:00 +20°C° 0 mm 2 m/s 744 mmHg 48%
    07:00 +25°C° 0 mm 2 m/s 744 mmHg 39%
    08:00 +28°C° 0 mm 2 m/s 745 mmHg 31%
    09:00 +32°C° 0 mm 2 m/s 745 mmHg 23%
    10:00 +35°C° 0 mm 2 m/s 745 mmHg 20%
    11:00 +38°C° 0 mm 2 m/s 745 mmHg 16%
    12:00 +40°C° 0 mm 2 m/s 744 mmHg 13%
    13:00 +42°C° 0 mm 3 m/s 744 mmHg 13%
    14:00 +43°C° 0 mm 3 m/s 744 mmHg 12%
    15:00 +43°C° 0 mm 3 m/s 743 mmHg 12%
    16:00 +42°C° 0 mm 3 m/s 743 mmHg 14%
    17:00 +41°C° 0 mm 4 m/s 743 mmHg 16%
    18:00 +38°C° 0 mm 4 m/s 742 mmHg 19%
    19:00 +34°C° 0 mm 3 m/s 743 mmHg 26%
    20:00 +30°C° 0 mm 3 m/s 743 mmHg 34%
    21:00 +26°C° 0 mm 2 m/s 743 mmHg 42%
    22:00 +25°C° 0 mm 2 m/s 744 mmHg 46%
    23:00 +24°C° 0 mm 2 m/s 744 mmHg 50%

    25 Agosto, Domingo

    Tempo Temperatura Precipitação Vento Pressão Humidade
    00:00 +23°C° 0 mm 2 m/s 744 mmHg 54%
    01:00 +23°C° 0 mm 2 m/s 744 mmHg 54%
    02:00 +22°C° 0 mm 1 m/s 743 mmHg 53%
    03:00 +22°C° 0 mm 1 m/s 743 mmHg 53%
    04:00 +21°C° 0 mm 2 m/s 743 mmHg 52%
    05:00 +21°C° 0 mm 2 m/s 743 mmHg 51%
    06:00 +21°C° 0 mm 2 m/s 744 mmHg 50%
    07:00 +25°C° 0 mm 2 m/s 744 mmHg 41%
    08:00 +29°C° 0 mm 2 m/s 744 mmHg 33%
    09:00 +32°C° 0 mm 2 m/s 744 mmHg 24%
    10:00 +35°C° 0 mm 2 m/s 744 mmHg 21%
    11:00 +37°C° 0 mm 2 m/s 744 mmHg 18%
    12:00 +40°C° 0 mm 2 m/s 744 mmHg 15%
    13:00 +40°C° 0 mm 2 m/s 743 mmHg 15%
    14:00 +40°C° 0 mm 2 m/s 743 mmHg 15%
    15:00 +41°C° 0 mm 2 m/s 743 mmHg 14%
    16:00 +40°C° 0 mm 3 m/s 743 mmHg 16%
    17:00 +39°C° 0 mm 3 m/s 742 mmHg 18%
    18:00 +38°C° 0 mm 3 m/s 742 mmHg 20%
    19:00 +35°C° 0 mm 3 m/s 743 mmHg 28%
    20:00 +30°C° 0 mm 2 m/s 743 mmHg 36%
    21:00 +27°C° 0 mm 2 m/s 744 mmHg 44%
    22:00 +26°C° 0 mm 2 m/s 744 mmHg 43%
    23:00 +26°C° 0 mm 2 m/s 745 mmHg 43%

    26 Agosto, Segunda-feira

    Tempo Temperatura Precipitação Vento Pressão Humidade
    00:00 +26°C° 0 mm 2 m/s 745 mmHg 42%
    01:00 +25°C° 0 mm 2 m/s 745 mmHg 43%
    02:00 +25°C° 0 mm 2 m/s 744 mmHg 44%
    03:00 +25°C° 0 mm 2 m/s 744 mmHg 44%
    04:00 +24°C° 0 mm 2 m/s 744 mmHg 44%
    05:00 +24°C° 0 mm 2 m/s 744 mmHg 43%
    06:00 +24°C° 0 mm 2 m/s 744 mmHg 42%
    07:00 +27°C° 0.1 mm 2 m/s 745 mmHg 37%
    08:00 +29°C° 0.1 mm 2 m/s 745 mmHg 31%
    09:00 +31°C° 0.1 mm 2 m/s 745 mmHg 26%
    10:00 +34°C° 0.1 mm 2 m/s 745 mmHg 24%
    11:00 +35°C° 0.1 mm 3 m/s 746 mmHg 22%
    12:00 +37°C° 0.1 mm 3 m/s 746 mmHg 20%
    13:00 +38°C° 0 mm 4 m/s 745 mmHg 19%
    14:00 +40°C° 0 mm 4 m/s 745 mmHg 18%
    15:00 +40°C° 0 mm 5 m/s 745 mmHg 17%
    16:00 +39°C° 0.1 mm 5 m/s 745 mmHg 20%
    17:00 +36°C° 0.1 mm 5 m/s 745 mmHg 23%
    18:00 +35°C° 0.1 mm 5 m/s 745 mmHg 27%
    19:00 +33°C° 0 mm 5 m/s 745 mmHg 29%
    20:00 +32°C° 0 mm 5 m/s 746 mmHg 31%
    21:00 +29°C° 0 mm 4 m/s 746 mmHg 33%
    22:00 +29°C° 0.1 mm 4 m/s 746 mmHg 36%
    23:00 +28°C° 0.1 mm 4 m/s 746 mmHg 40%
    Mostrar mais